Terminal Aerodrome Forecast
Issued by NWS

Home | Current Version | Previous Version | Graphics & Text | Print | Product List | Glossary On
Versions: 1 2 3 4 5 6 7 8 9 10 11 12 13 14 15 16 17 18 19 20 21 22
000
FTUS43 KMPX 201121
TAFRWF
TAF
KRWF 201121Z 2012/2112 14006KT 1SM BR VV002
     FM201600 13006KT 2SM BR OVC004
     FM210000 12004KT 2SM -DZ BR OVC003
     FM210300 12005KT 1/2SM FG OVC002=

USA.gov is the U.S. government's official web portal to all federal, state and local government web resources and services.